DW8947 Weather Reports


time (UTC)temp
C
wind
direction
speed
KPH
gust
KPH
rain 1hr
cm
rain 24hr
cm
rain mn
cm
humidity
%
barometer
mb
20260506195705 13 196 0.0 3.2 0.00 0.00 0.00 80 1018.9
20260506194705 13 182 0.0 3.2 0.00 0.00 0.00 80 1018.9
20260506193704 13 200 0.0 1.6 0.00 0.00 0.00 79 1018.8
20260506191705 13 197 0.0 1.6 0.00 0.00 0.00 79 1018.6
20260506191205 13 169 0.0 3.2 0.00 0.00 0.00 79 1018.6
20260506190705 13 169 0.0 3.2 0.00 0.00 0.00 78 1018.6
20260506190205 13 144 0.0 3.2 0.00 0.00 0.00 79 1018.6
20260506185205 13 187 0.0 3.2 0.00 0.00 0.00 81 1018.6
20260506184204 13 270 0.0 3.2 0.00 0.00 0.00 82 1018.6
20260506183705 13 289 0.0 3.2 0.00 0.00 0.00 83 1018.6
20260506183204 12 233 0.0 3.2 0.00 0.00 0.00 82 1018.6
20260506182704 12 249 0.0 3.2 0.00 0.00 0.00 84 1018.5
20260506181704 12 98 1.6 3.2 0.00 0.00 0.00 84 1018.6
20260506180705 12 291 0.0 3.2 0.00 0.00 0.00 86 1018.5
20260506180205 12 181 0.0 1.6 0.00 0.00 0.00 88 1018.5
20260506174704 12 327 0.0 3.2 0.00 0.00 0.00 91 1018.6
20260506172704 12 114 0.0 3.2 0.00 0.00 0.00 90 1018.2
20260506172205 12 114 1.6 3.2 0.00 0.00 0.00 90 1018.1
20260506171204 12 114 0.0 3.2 0.00 0.00 0.00 90 1018.3
20260506165705 12 106 0.0 1.6 0.00 0.00 0.00 90 1018.2
20260506162705 12 160 0.0 3.2 0.00 0.00 0.00 90 1018.3
20260506162205 12 158 0.0 3.2 0.00 0.00 0.00 90 1018.3
20260506161705 12 87 0.0 3.2 0.00 0.00 0.00 90 1018.2
20260506161204 12 82 0.0 3.2 0.00 0.00 0.00 90 1018.2
20260506160206 11 65 0.0 3.2 0.00 0.00 0.00 91 1017.9
20260506155706 12 170 1.6 3.2 0.00 0.00 0.00 91 1017.7
20260506155205 11 173 0.0 3.2 0.00 0.00 0.00 91 1017.6
20260506154705 11 205 0.0 3.2 0.00 0.00 0.00 91 1017.6
20260506152705 11 152 0.0 3.2 0.00 0.00 0.00 90 1017.7
20260506152205 11 152 0.0 1.6 0.00 0.00 0.00 90 1017.8
20260506151204 12 152 0.0 3.2 0.00 0.00 0.00 89 1017.7
20260506150704 12 152 0.0 3.2 0.00 0.00 0.00 89 1017.9
20260506145705 12 152 0.0 3.2 0.00 0.00 0.00 88 1018.0
20260506143204 11 144 0.0 3.2 0.00 0.00 0.00 89 1017.5
20260506142705 11 102 0.0 3.2 0.00 0.00 0.00 89 1017.7
20260506142205 11 105 0.0 3.2 0.00 0.00 0.00 89 1017.6
20260506141705 11 105 0.0 3.2 0.00 0.00 0.00 89 1017.6
20260506140705 11 105 0.0 3.2 0.00 0.00 0.00 89 1017.6
20260506134705 11 215 0.0 3.2 0.00 0.00 0.00 89 1017.3
20260506133705 11 215 0.0 3.2 0.00 0.00 0.00 89 1017.4
20260506131704 11 237 0.0 3.2 0.00 0.00 0.00 90 1017.2
20260506131205 11 237 0.0 3.2 0.00 0.00 0.00 90 1017.3
20260506130705 11 237 0.0 3.2 0.00 0.00 0.00 91 1017.3
20260506130204 11 237 0.0 3.2 0.00 0.00 0.00 91 1017.2
20260506125204 11 237 0.0 1.6 0.00 0.00 0.00 91 1017.0
20260506124205 11 237 0.0 3.2 0.00 0.00 0.00 91 1016.7
20260506123705 11 237 0.0 3.2 0.00 0.00 0.00 91 1016.8
20260506122705 11 237 0.0 3.2 0.00 0.00 0.00 91 1016.9
20260506122204 11 237 0.0 1.6 0.00 0.00 0.00 91 1017.0
20260506121204 11 237 0.0 1.6 0.00 0.00 0.00 91 1016.8
20260506120705 11 237 0.0 3.2 0.00 0.00 0.00 91 1016.8
20260506115705 11 237 0.0 3.2 0.00 0.00 0.00 91 1016.8
20260506115205 11 237 0.0 3.2 0.00 0.00 0.00 90 1016.7
20260506114704 11 237 0.0 3.2 0.00 0.00 0.00 90 1016.6
20260506114204 11 237 0.0 3.2 0.00 0.00 0.00 90 1016.6
20260506113705 11 237 0.0 3.2 0.00 0.00 0.00 91 1016.6
20260506112204 11 237 0.0 3.2 0.00 0.00 0.00 91 1016.4
20260506111705 11 237 0.0 1.6 0.00 0.00 0.00 91 1016.3
20260506111205 11 221 0.0 3.2 0.00 0.00 0.00 92 1016.3
20260506110205 11 208 0.0 3.2 0.00 0.00 0.00 92 1016.3
20260506103205 11 181 0.0 3.2 0.00 0.00 0.00 93 1016.1
20260506102204 11 181 0.0 0.0 0.00 0.00 0.00 93 1016.1
20260506101205 10 181 0.0 0.0 0.00 0.00 0.00 93 1016.1
20260506100205 10 181 0.0 0.0 0.00 0.00 0.00 93 1016.0
20260506095205 11 181 0.0 0.0 0.00 0.00 0.00 92 1015.9
20260506094705 11 181 0.0 0.0 0.00 0.00 0.00 92 1015.8
20260506094205 11 181 0.0 0.0 0.00 0.00 0.00 92 1015.8
20260506093205 11 181 0.0 0.0 0.00 0.00 0.00 92 1015.7
20260506092705 11 181 0.0 0.0 0.00 0.00 0.00 92 1015.6
20260506091705 11 181 0.0 0.0 0.00 0.00 0.00 92 1015.6
20260506090205 11 181 0.0 0.0 0.00 0.00 0.00 92 1015.6
20260506085205 11 181 0.0 0.0 0.00 0.00 0.00 92 1015.5
20260506084204 11 181 0.0 0.0 0.00 0.00 0.00 91 1015.4
20260506083204 11 181 0.0 0.0 0.00 0.00 0.00 91 1015.3
20260506082205 11 181 0.0 0.0 0.00 0.00 0.00 91 1015.3
20260506081704 11 181 0.0 0.0 0.00 0.00 0.00 91 1015.2
20260506080205 11 181 0.0 0.0 0.00 0.00 0.00 90 1015.1
20260506073205 12 181 0.0 0.0 0.00 0.00 0.00 90 1015.0
20260506072705 12 181 0.0 0.0 0.00 0.00 0.00 89 1014.9
20260506072205 12 181 0.0 0.0 0.00 0.00 0.00 89 1014.9
20260506071205 12 181 0.0 0.0 0.00 0.00 0.00 89 1014.8
20260506070205 12 181 0.0 0.0 0.00 0.00 0.00 88 1014.8
20260506061205 13 181 0.0 3.2 0.00 0.00 0.00 87 1014.5
20260506060704 13 181 0.0 0.0 0.00 0.00 0.00 86 1014.5
20260506060204 13 181 0.0 0.0 0.00 0.00 0.00 86 1014.4
20260506050705 13 181 0.0 0.0 0.00 0.00 0.00 86 1013.8
20260506050205 13 181 0.0 3.2 0.00 0.00 0.00 86 1013.8
20260506044705 13 181 0.0 3.2 0.00 0.00 0.00 85 1013.6
20260506044205 13 181 0.0 0.0 0.00 0.00 0.00 85 1013.7
20260506043204 14 181 0.0 3.2 0.00 0.00 0.00 85 1013.6
20260506042205 14 181 0.0 0.0 0.00 0.00 0.00 84 1013.6
20260506041704 14 181 0.0 3.2 0.00 0.00 0.00 84 1013.6
20260506041204 14 181 0.0 0.0 0.00 0.00 0.00 84 1013.5
20260506040205 14 181 0.0 1.6 0.00 0.00 0.00 84 1013.4
20260506035204 14 181 0.0 1.6 0.00 0.00 0.00 84 1013.4
20260506034704 14 181 0.0 1.6 0.00 0.00 0.00 84 1013.3
20260506034205 14 181 0.0 0.0 0.00 0.00 0.00 83 1013.3
20260506033705 14 181 0.0 1.6 0.00 0.00 0.00 83 1013.3
20260506033205 14 181 0.0 1.6 0.00 0.00 0.00 83 1013.3
20260506031704 15 181 0.0 0.0 0.00 0.00 0.00 82 1013.2
20260506030704 15 181 0.0 0.0 0.00 0.00 0.00 82 1013.1
20260506030205 15 181 0.0 3.2 0.00 0.00 0.00 82 1013.2
20260506025204 15 181 0.0 3.2 0.00 0.00 0.00 81 1013.1
20260506024705 15 181 0.0 0.0 0.00 0.00 0.00 81 1013.1
20260506023205 15 181 0.0 1.6 0.00 0.00 0.00 80 1013.1
20260506021705 16 181 0.0 0.0 0.00 0.00 0.00 79 1013.1
20260506020704 16 181 0.0 1.6 0.00 0.00 0.00 79 1013.0
20260506014706 16 181 0.0 3.2 0.00 0.00 0.00 78 1013.0
20260506014205 16 181 0.0 3.2 0.00 0.00 0.00 78 1013.1
20260506013704 16 181 0.0 3.2 0.00 0.00 0.00 78 1013.1
20260506012204 16 182 0.0 3.2 0.00 0.00 0.00 77 1013.2
20260506011705 16 185 0.0 3.2 0.00 0.00 0.00 77 1013.2
20260506011205 16 185 0.0 3.2 0.00 0.00 0.00 76 1013.2
20260506010204 16 185 0.0 3.2 0.00 0.00 0.00 77 1013.2
20260506005705 16 185 0.0 3.2 0.00 0.00 0.00 75 1013.2
20260506005204 16 181 0.0 1.6 0.00 0.00 0.00 76 1013.2
20260506004704 16 174 0.0 3.2 0.00 0.00 0.00 76 1013.2
20260506004204 16 173 0.0 4.8 0.00 0.00 0.00 75 1013.3
20260506002704 16 136 1.6 3.2 0.00 0.00 0.00 75 1013.3
20260506002204 16 189 1.6 3.2 0.00 0.00 0.00 75 1013.4
20260506001704 16 177 1.6 3.2 0.00 0.00 0.00 75 1013.4
20260506001205 16 192 1.6 3.2 0.00 0.00 0.00 76 1013.5
20260506000205 16 187 1.6 3.2 0.00 0.00 0.00 75 1013.5
20260505235705 16 174 0.0 3.2 0.00 0.00 0.00 75 1013.5
20260505225704 17 169 1.6 3.2 0.00 0.00 0.00 70 1013.9
20260505223704 18 183 1.6 3.2 0.00 0.00 0.00 70 1014.0
20260505223205 18 183 1.6 3.2 0.00 0.00 0.00 70 1014.0
20260505222704 17 130 0.0 3.2 0.00 0.00 0.00 69 1014.0
20260505220205 17 162 1.6 3.2 0.00 0.00 0.00 70 1014.2
20260505215704 17 329 1.6 3.2 0.00 0.00 0.00 72 1014.2
20260505214204 17 196 1.6 3.2 0.00 0.00 0.00 70 1014.3
20260505213205 17 63 1.6 3.2 0.00 0.00 0.00 70 1014.4
20260505211705 18 267 0.0 3.2 0.00 0.00 0.00 70 1014.5
20260505211205 17 252 1.6 3.2 0.00 0.00 0.00 72 1014.5
20260505210704 17 73 1.6 3.2 0.00 0.00 0.00 71 1014.5
20260505205704 17 209 1.6 1.6 0.00 0.00 0.00 73 1014.5
20260505204704 16 207 1.6 3.2 0.00 0.00 0.00 74 1014.6
20260505204205 16 244 1.6 3.2 0.00 0.00 0.00 76 1014.6
20260505203204 16 245 1.6 3.2 0.00 0.00 0.00 75 1014.7
20260505202704 16 260 0.0 3.2 0.00 0.00 0.00 76 1014.7
20260505202205 16 301 1.6 3.2 0.00 0.00 0.00 76 1014.7
20260505200204 15 268 1.6 3.2 0.00 0.00 0.00 78 1014.7